Location: Newark
(40.9833°N, 0.0333°W)
Time: 06:43:15
(UTC+00:00)

Courier 1B - Pass Details

Date: 05 November 2020
Orbit: 962 x 1209 km, 28.3° (Epoch: 01 December)

Event Time Altitude Azimuth Distance (km) Brightness Sun altitude
Rises 05:46:15 0° 202° (SSW) 4,023 10.6 -9.8°
Reaches altitude 10° 05:51:49 10° 169° (S) 3,003 10.4 -8.8°
Maximum altitude 05:53:42 11° 154° (SSE) 2,901 10.6 -8.5°
Drops below altitude 10° 05:55:34 10° 139° (SE) 2,959 10.9 -8.1°
Sets 06:00:53 0° 107° (ESE) 3,847 13.3 -7.2°
